This demonstration page uses our WeatherBlox Daily Observations layout. Learn more.

41.55636, -103.73856

Hourly Observations for July 23, 2016

Temp ( °F °C ) Dew Point ( °F °C ) Humidity (%) Winds ( mph kmh ) Pressure ( in mb ) Visibility ( mi km ) Precip ( " mm )
12:53 am 00:53 Clear 65 18.3 60 15.6 84 84 ENE 3 6 29.85 1011 10 16.0934 0 0
1:53 am 01:53 Clear 65 18.3 60 15.6 84 84 ENE 6 9 29.83 1010 10 16.0934 0 0
2:53 am 02:53 Clear 64 17.8 60 15.6 87 87 ESE 6 9 29.84 1011 10 16.0934 0 0
3:53 am 03:53 Clear 64 18 61 16 88 88 Calm 29.77 1008 10 16.0934 0 0
4:53 am 04:53 Clear 61 16.1 59 15 93 93 NNW 8 13 29.81 1010 10 16.0934 0 0
5:53 am 05:53 Sunny 62 16.7 58 14.4 86 86 NNW 5 7 29.81 1010 10 16.0934 0 0
6:53 am 06:53 Sunny 66 18.9 61 16.1 84 84 Calm 29.82 1010 10 16.0934 0 0
7:53 am 07:53 Sunny 74 23.3 59 15 60 60 NNW 5 7 29.82 1010 10 16.0934 0 0
8:53 am 08:53 Sunny 81 27.2 56 13.3 42 42 W 8 13 29.83 1010 10 16.0934 0 0
9:53 am 09:53 Sunny 86 30 54 12.2 33 33 W 10 17 29.83 1010 10 16.0934 0 0
10:53 am 10:53 Sunny 89 31.7 48 8.9 24 24 WNW 16 26 29.83 1010 10 16.0934 0 0
11:53 am 11:53 Sunny 91 32.8 49 9.4 24 24 WNW 14 22 29.84 1010 10 16.0934 0 0
12:53 pm 12:53 Sunny 93 33.9 50 10 23 23 NW 14 22 29.83 1010 10 16.0934 0 0
1:53 pm 13:53 Sunny 96 35.6 49 9.4 20 20 NW 9 15 29.81 1010 10 16.0934 0 0
2:53 pm 14:53 Sunny 97 36.1 48 8.9 19 19 VRB 5 7 29.79 1009 10 16.0934 0 0
3:53 pm 15:53 Sunny 97 36 45 7 17 17 NNE 7 11 29.53 1000 10 16.0934 0 0
4:53 pm 16:53 Sunny 93 33.9 51 10.6 24 24 S 7 11 29.8 1009 10 16.0934 0 0
5:53 pm 17:53 Sunny 93 33.9 58 14.4 31 31 E 13 20 29.78 1008 10 16.0934 0 0
6:53 pm 18:53 Sunny 88 31.1 56 13.3 34 34 undefined N/A 29.82 1010 10 16.0934 0 0
7:53 pm 19:53 Mostly Sunny 81 27.2 54 12.2 39 39 NE 6 9 29.82 1010 10 16.0934 0 0
8:53 pm 20:53 Clear 75 23.9 57 13.9 54 54 E 5 7 29.83 1010 10 16.0934 0 0
9:53 pm 21:53 Clear 71 21.7 58 14.4 63 63 NE 9 15 29.86 1011 10 16.0934 0 0
10:53 pm 22:53 Clear 70 21.1 57 13.9 64 64 SSE 6 9 29.9 1012 10 16.0934 0 0
11:53 pm 23:53 Clear 68 20 57 13.9 68 68 ESE 7 11 29.91 1013 10 16.0934 0 0

Powered by AerisWeather